Regional Weather Roundup
Issued by NWS

Home | Current Version | Previous Version | Graphics & Text | Print | Product List | Glossary On
Versions: 1 2 3 4 5 6 7 8 9 10 11 12 13 14 15 16 17 18 19 20 21 22 23 24 25 26 27 28 29 30 31 32 33 34 35 36 37 38 39 40 41 42 43 44 45 46 47 48 49 50
139
ASUS45 KBOU 191010
RWRCO

WEATHER ROUNDUP FOR COLORADO
NATIONAL WEATHER SERVICE PUEBLO CO
400 AM MDT THU APR 19 2018

NOTE: "FAIR" INDICATES FEW OR NO CLOUDS BELOW 12000 FEET WITH NO
SIGNIFICANT WEATHER AND/OR OBSTRUCTIONS TO VISIBILITY.

COZ001>005-013-030-031-191100-
...NORTHWEST COLORADO...

CITY           SKY/WX    TMP DP  RH WIND       PRES   REMARKS
CRAIG          FAIR      24  19  81 W5        30.10S WCI  18
HAYDEN         FAIR      32  19  58 E13       30.12S WCI  22
MEEKER         FAIR      27  20  75 CALM      30.10S
RABBIT EARS PA NOT AVBL
STEAMBOAT SPGS FAIR      29  16  57 CALM      30.13S
WALDEN         FAIR      18   9  68 SE9       30.18S WCI   6
$$

COZ006>008-011-191100-
...WEST CENTRAL VALLEYS...

CITY           SKY/WX    TMP DP  RH WIND       PRES   REMARKS
GRAND JUNCTION FAIR      40  12  32 SE9       30.03F
MONTROSE       FAIR      30  11  45 SE7       30.09F WCI  23
EAGLE          FAIR      26  18  71 CALM      30.19S
RIFLE          FAIR      31  22  69 CALM      30.09F
DELTA          NOT AVBL
NUCLA          FAIR      34   1  25 SE5       30.10F WCI  30
$$

COZ017>023-064>068-191100-
...SOUTHWEST COLORADO...

CITY           SKY/WX    TMP DP  RH WIND       PRES   REMARKS
DURANGO        FAIR      29   1  30 N5        30.17S WCI  24
CORTEZ         FAIR      50  -1  12 SE17      30.08S
PAGOSA SPRINGS NOT AVBL
TELLURIDE      FAIR      44  -2  14 S8G16     30.20S
WOLF CREEK PAS FAIR      25   3  39 S26G32    30.32F WCI   9
$$

COZ009-010-012-014-032>034-037-058>063-191100-
...CENTRAL COLORADO...

CITY           SKY/WX    TMP DP  RH WIND       PRES   REMARKS
ASPEN          FAIR      36   9  32 S10       30.13F
BUENA VISTA    FAIR      21   3  45 W5        30.28S WCI  14
COPPER MTN     NOT AVBL
BERTHOUD PASS  FAIR      23  12  63 SW28G35   30.26R WCI   6
COTTONWOOD PAS FAIR      32   0  25 SE6       30.28S WCI  26
GUNNISON       FAIR      21  12  68 CALM      30.21S
KREMMLING      FAIR      25  16  68 CALM      30.20R
LEADVILLE      FAIR      19   5  54 NE7       30.25S WCI  10
MONARCH PASS   FAIR      27  -6  24 S18G24    30.41S WCI  13
SALIDA         NOT AVBL
SUNLIGHT       FAIR      27   3  36 S12G20    30.25F WCI  16
WILKERSON PASS CLOUDY    19  -2  38 SW13G18   30.29F WCI   7
$$

COZ069>075-191100-
...SAN LUIS VALLEY/SANGRE DE CRISTO MOUNTAINS...

CITY           SKY/WX    TMP DP  RH WIND       PRES   REMARKS
ALAMOSA        FAIR      27   9  46 SE10      30.22F WCI  17
DEL NORTE      FAIR      22  -2  35 W10       30.24S WCI  11
LA VETA PASS   FAIR      28   5  37 SW15G21   30.38S WCI  17
SAGUACHE       NOT AVBL
$$

COZ035-036-038>040-191100-
...NORTHERN COLORADO FRONT RANGE...

CITY           SKY/WX    TMP DP  RH WIND       PRES   REMARKS
DENVER INTL AP FAIR      31  15  52 S13       30.25S WCI  21
DMNS CITY PARK NOT AVBL
AURORA         PTCLDY    36  14  41 S13       30.26S
FRONT RANGE AP FAIR      35  17  47 S12G17    30.27R WCI  27
ERIE MUNI ARPT FAIR      26  19  75 CALM      30.30S
BOULDER MUN AP FAIR      34  19  55 W3        30.24S
CENTENNIAL     FAIR      32  15  49 SE9       30.25F WCI  24
BROOMFIELD     FAIR      37  12  35 S3        30.25S
LOVELAND       FAIR      32  19  58 E9        30.27S WCI  24
LONGMONT       FAIR      33  18  54 N3        30.27S
$$

COZ041-046-047-076>085-087-088-191100-
...PIKES PEAK/PALMER DIVIDE AND SOUTHERN FOOTHILLS...

CITY           SKY/WX    TMP DP  RH WIND       PRES   REMARKS
COLO. SPRINGS  FAIR      36  13  38 S5        30.29F
A. F. ACADEMY  FAIR      32  11  41 S12       30.26F WCI  23
SCHRIEVER AFB  NOT AVBL
CHEYENNE MTN   NOT AVBL
ELLICOTT         N/A    N/A N/A N/A SE10      30.27F
FALCON         FAIR      28  13  52 S6        30.29F WCI  22
FORT CARSON    FAIR      37  13  37 W3        30.27F
LIMON          FAIR      17  14  88 CALM      30.30R
MONUMENT HILL  FAIR      27  14  59 S7        30.27F WCI  19
CANON CITY     FAIR      36  12  38 S3        30.26F
WALSENBURG     FAIR      30   3  31 W5        30.25R WCI  25
TRINIDAD       FAIR      39   6  25 CALM      30.25S
$$

COZ042>045-048>051-090-091-191100-
...NORTHEAST COLORADO...

CITY           SKY/WX    TMP DP  RH WIND       PRES   REMARKS
GREELEY ARPT   FAIR      26  14  60 CALM      30.29R
AKRON          FAIR      31  21  66 SE12      30.29S WCI  22
BURLINGTON     FAIR      27  21  78 SE10      30.33R WCI  17
WRAY           NOT AVBL
YUMA           NOT AVBL
STERLING       FAIR      30  23  74 CALM      30.30R
HOLYOKE        FAIR      30  27  86 SE7       30.34S WCI  23
FORT MORGAN    FAIR      28  17  61 NE5       30.29S WCI  23
$$

COZ086-089-092>099-191100-
...SOUTHEAST COLORADO...

CITY           SKY/WX    TMP DP  RH WIND       PRES   REMARKS
PUEBLO         FAIR      36  13  38 CALM      30.26S
LA JUNTA       FAIR      33  13  43 E9        30.28S WCI  25
LAMAR          FAIR      26  17  68 CALM      30.30S
SPRINGFIELD      N/A     31  13  47 SE5       30.30S WCI  26
$$





USA.gov is the U.S. government's official web portal to all federal, state and local government web resources and services.